| time (UTC) | temp F | wind direction | speed MPH | gust MPH | rain 1hr in | rain 24hr in | rain mn in | humidity % | barometer mb |
| 20260901184147 | 87 | 24 | 5.0 | 9.0 | 0.00 | 0.00 | 0.00 | 71 | 1011.2 |
| 20260901183145 | 87 | 41 | 5.0 | 8.0 | 0.00 | 0.00 | 0.00 | 71 | 1011.4 |
| 20260901182144 | 87 | 31 | 5.0 | 9.0 | 0.00 | 0.00 | 0.00 | 72 | 1010.4 |
| 20260901181147 | 88 | 48 | 5.0 | 9.0 | 0.00 | 0.00 | 0.00 | 72 | 1011.5 |
| 20260901180144 | 88 | 40 | 5.0 | 9.0 | 0.00 | 0.00 | 0.00 | 72 | 1013.4 |
| 20260901175630 | 87 | 37 | 5.0 | 8.0 | 0.00 | 0.00 | 0.00 | 72 | 1012.5 |
| 20260901174145 | 87 | 48 | 5.0 | 9.0 | 0.00 | 0.00 | 0.00 | 73 | 1012.2 |
| 20260901173625 | 87 | 46 | 5.0 | 10.0 | 0.00 | 0.00 | 0.00 | 74 | 1012.7 |
| 20260901172145 | 87 | 10 | 5.0 | 9.0 | 0.00 | 0.00 | 0.00 | 74 | 1012.8 |
| 20260901171144 | 87 | 29 | 5.0 | 10.0 | 0.00 | 0.00 | 0.00 | 74 | 1013.1 |
| 20260901170143 | 87 | 47 | 5.0 | 9.0 | 0.00 | 0.00 | 0.00 | 73 | 1014.9 |
| 20260901165142 | 87 | 38 | 5.0 | 9.0 | 0.00 | 0.00 | 0.00 | 74 | 1012.0 |
| 20260901164143 | 87 | 27 | 5.0 | 9.0 | 0.00 | 0.00 | 0.00 | 74 | 1012.2 |
| 20260901163143 | 87 | 36 | 5.0 | 9.0 | 0.00 | 0.00 | 0.00 | 73 | 1013.2 |
| 20260901162143 | 87 | 5 | 5.0 | 8.0 | 0.00 | 0.00 | 0.00 | 74 | 1013.7 |
| 20260901161144 | 87 | 42 | 5.0 | 9.0 | 0.00 | 0.00 | 0.00 | 74 | 1011.8 |
| 20260901160141 | 87 | 35 | 5.0 | 9.0 | 0.00 | 0.00 | 0.00 | 75 | 1013.9 |
| 20260901155615 | 87 | 32 | 4.0 | 9.0 | 0.00 | 0.00 | 0.00 | 76 | 1014.5 |
| 20260901154139 | 86 | 31 | 5.0 | 10.0 | 0.00 | 0.00 | 0.00 | 76 | 1009.6 |
| 20260901153139 | 87 | 44 | 5.0 | 9.0 | 0.00 | 0.00 | 0.00 | 75 | 1012.8 |
| 20260901152139 | 87 | 27 | 5.0 | 8.0 | 0.00 | 0.00 | 0.00 | 76 | 1013.3 |
| 20260901151615 | 87 | 38 | 4.0 | 8.0 | 0.00 | 0.00 | 0.00 | 76 | 1013.4 |
| 20260901150140 | 86 | 41 | 5.0 | 9.0 | 0.00 | 0.01 | 0.00 | 76 | 1013.0 |
| 20260901145623 | 85 | 32 | 5.0 | 9.0 | 0.00 | 0.10 | 0.00 | 77 | 1013.1 |
| 20260901144140 | 85 | 32 | 4.0 | 6.0 | 0.00 | 0.10 | 0.00 | 78 | 1007.4 |
| 20260901143136 | 85 | 17 | 3.0 | 6.0 | 0.00 | 0.10 | 0.00 | 78 | 1009.3 |
| 20260901142133 | 85 | 23 | 4.0 | 7.0 | 0.00 | 0.10 | 0.00 | 79 | 1008.5 |
| 20260901141134 | 85 | 11 | 3.0 | 7.0 | 0.00 | 0.10 | 0.00 | 81 | 1012.1 |
| 20260901140134 | 84 | 50 | 3.0 | 6.0 | 0.00 | 0.10 | 0.00 | 83 | 1007.7 |
| 20260901135133 | 84 | 41 | 3.0 | 6.0 | 0.00 | 0.10 | 0.00 | 83 | 1007.6 |
| 20260901134134 | 84 | 43 | 3.0 | 6.0 | 0.00 | 0.10 | 0.00 | 84 | 1006.4 |
| 20260901133611 | 85 | 35 | 3.0 | 6.0 | 0.00 | 0.10 | 0.00 | 87 | 1007.5 |
| 20260901132133 | 84 | 35 | 2.0 | 4.0 | 0.00 | 0.10 | 0.00 | 90 | 1006.7 |
| 20260901131132 | 83 | 17 | 2.0 | 4.0 | 0.00 | 0.10 | 0.00 | 91 | 1006.0 |
| 20260901130132 | 83 | 31 | 2.0 | 4.0 | 0.00 | 0.10 | 0.00 | 92 | 1005.0 |
| 20260901125132 | 83 | 19 | 2.0 | 5.0 | 0.00 | 0.10 | 0.00 | 93 | 1004.4 |
| 20260901124133 | 83 | 33 | 2.0 | 5.0 | 0.00 | 0.10 | 0.00 | 93 | 1004.8 |
| 20260901123611 | 82 | 31 | 2.0 | 5.0 | 0.00 | 0.10 | 0.00 | 94 | 1005.7 |
| 20260901122609 | 82 | 54 | 2.0 | 4.0 | 0.00 | 0.10 | 0.00 | 95 | 1005.2 |
| 20260901121133 | 81 | 12 | 2.0 | 5.0 | 0.00 | 0.10 | 0.00 | 95 | 1004.6 |
| 20260901120129 | 81 | 46 | 2.0 | 4.0 | 0.00 | 0.10 | 0.00 | 96 | 1004.5 |
| 20260901115126 | 80 | 21 | 2.0 | 4.0 | 0.00 | 0.10 | 0.00 | 96 | 1003.8 |
| 20260901114125 | 80 | 25 | 2.0 | 3.0 | 0.00 | 0.10 | 0.00 | 96 | 1003.3 |
| 20260901113126 | 79 | 42 | 2.0 | 3.0 | 0.00 | 0.10 | 0.00 | 96 | 1002.7 |
| 20260901112126 | 79 | 26 | 2.0 | 3.0 | 0.00 | 0.10 | 0.00 | 96 | 1002.1 |
| 20260901111126 | 79 | 29 | 2.0 | 3.0 | 0.00 | 0.10 | 0.00 | 96 | 1001.7 |
| 20260901110126 | 79 | 22 | 2.0 | 4.0 | 0.00 | 0.10 | 0.00 | 96 | 1001.6 |
| 20260901105126 | 79 | 347 | 2.0 | 2.0 | 0.00 | 0.10 | 0.00 | 96 | 1001.6 |
| 20260901104126 | 79 | 2 | 2.0 | 4.0 | 0.00 | 0.10 | 0.00 | 96 | 1001.5 |
| 20260901103111 | 79 | 349 | 2.0 | 3.0 | 0.00 | 0.10 | 0.00 | 96 | 1001.5 |
| 20260901102111 | 79 | 40 | 1.0 | 3.0 | 0.00 | 0.10 | 0.00 | 96 | 1001.3 |
| 20260901101547 | 79 | 9 | 2.0 | 3.0 | 0.00 | 0.10 | 0.00 | 96 | 1001.6 |
| 20260901100547 | 79 | 30 | 2.0 | 2.0 | 0.00 | 0.10 | 0.00 | 96 | 1001.7 |
| 20260901095110 | 79 | 36 | 2.0 | 2.0 | 0.00 | 0.10 | 0.00 | 95 | 1001.5 |
| 20260901094111 | 79 | 41 | 2.0 | 3.0 | 0.00 | 0.10 | 0.00 | 95 | 1001.5 |
| 20260901093107 | 79 | 38 | 1.0 | 3.0 | 0.00 | 0.10 | 0.00 | 95 | 1001.2 |
| 20260901092108 | 79 | 354 | 1.0 | 2.0 | 0.00 | 0.10 | 0.00 | 95 | 1001.3 |
| 20260901091107 | 79 | 0 | 1.0 | 2.0 | 0.00 | 0.10 | 0.00 | 95 | 1001.2 |
| 20260901090107 | 79 | 6 | 2.0 | 3.0 | 0.00 | 0.10 | 0.00 | 95 | 1000.9 |
| 20260901085056 | 79 | 12 | 2.0 | 4.0 | 0.00 | 0.10 | 0.00 | 95 | 1001.0 |
| 20260901084538 | 79 | 21 | 2.0 | 3.0 | 0.00 | 0.10 | 0.00 | 95 | 1001.0 |
| 20260901083055 | 79 | 2 | 1.0 | 4.0 | 0.00 | 0.10 | 0.00 | 94 | 1001.1 |
| 20260901082056 | 79 | 0 | 2.0 | 4.0 | 0.00 | 0.10 | 0.00 | 94 | 1001.2 |
| 20260901081542 | 79 | 359 | 2.0 | 3.0 | 0.00 | 0.10 | 0.00 | 94 | 1001.1 |
| 20260901080056 | 79 | 9 | 1.0 | 3.0 | 0.00 | 0.10 | 0.00 | 94 | 1000.9 |
| 20260901075056 | 79 | 17 | 1.0 | 2.0 | 0.00 | 0.10 | 0.00 | 94 | 1001.0 |
| 20260901074053 | 79 | 33 | 2.0 | 3.0 | 0.00 | 0.10 | 0.00 | 94 | 1001.3 |
| 20260901073052 | 79 | 35 | 1.0 | 2.0 | 0.00 | 0.10 | 0.00 | 94 | 1001.2 |
| 20260901072053 | 80 | 27 | 1.0 | 2.0 | 0.00 | 0.10 | 0.00 | 94 | 1001.5 |
| 20260901071531 | 80 | 10 | 1.0 | 2.0 | 0.00 | 0.10 | 0.00 | 93 | 1001.3 |
| 20260901070054 | 80 | 10 | 1.0 | 2.0 | 0.00 | 0.10 | 0.00 | 93 | 1001.5 |
| 20260901065053 | 80 | 11 | 2.0 | 3.0 | 0.00 | 0.10 | 0.00 | 93 | 1001.7 |
| 20260901064054 | 80 | 39 | 1.0 | 3.0 | 0.00 | 0.10 | 0.00 | 93 | 1001.7 |
| 20260901063051 | 80 | 24 | 2.0 | 3.0 | 0.00 | 0.10 | 0.00 | 93 | 1001.9 |
| 20260901061534 | 80 | 34 | 2.0 | 4.0 | 0.00 | 0.10 | 0.00 | 92 | 1002.3 |
| 20260901060048 | 80 | 60 | 1.0 | 2.0 | 0.00 | 0.10 | 0.00 | 92 | 1001.8 |
| 20260901055048 | 80 | 82 | 1.0 | 2.0 | 0.00 | 0.10 | 0.00 | 92 | 1001.7 |
| 20260901054048 | 80 | 59 | 0.0 | 2.0 | 0.00 | 0.10 | 0.00 | 91 | 1001.7 |
| 20260901053054 | 80 | 0 | 1.0 | 2.0 | 0.00 | 0.10 | 0.00 | 91 | 1001.7 |
| 20260901052046 | 80 | 111 | 2.0 | 4.0 | 0.00 | 0.10 | 0.00 | 91 | 1002.2 |
| 20260901051047 | 80 | 21 | 2.0 | 4.0 | 0.00 | 0.10 | 0.00 | 91 | 1002.4 |
| 20260901050530 | 80 | 47 | 2.0 | 3.0 | 0.00 | 0.10 | 0.00 | 92 | 1002.3 |
| 20260901045047 | 80 | 58 | 2.0 | 4.0 | 0.00 | 0.10 | 0.00 | 92 | 1002.3 |
| 20260901044047 | 80 | 27 | 2.0 | 3.0 | 0.00 | 0.10 | 0.00 | 92 | 1002.3 |
| 20260901043047 | 80 | 28 | 2.0 | 3.0 | 0.00 | 0.10 | 0.00 | 92 | 1002.6 |
| 20260901042047 | 80 | 41 | 1.0 | 2.0 | 0.00 | 0.10 | 0.00 | 92 | 1002.6 |
| 20260901041043 | 80 | 58 | 2.0 | 3.0 | 0.00 | 0.10 | 0.00 | 92 | 1002.6 |
| 20260901040052 | 81 | 44 | 2.0 | 4.0 | 0.00 | 0.10 | 0.00 | 92 | 1002.7 |
| 20260901035041 | 81 | 24 | 2.0 | 4.0 | 0.00 | 0.10 | 0.10 | 92 | 1002.9 |
| 20260901034041 | 81 | 40 | 2.0 | 4.0 | 0.00 | 0.10 | 0.10 | 91 | 1003.0 |
| 20260901033041 | 81 | 38 | 2.0 | 5.0 | 0.00 | 0.10 | 0.10 | 91 | 1003.1 |
| 20260901032040 | 81 | 48 | 2.0 | 3.0 | 0.00 | 0.10 | 0.10 | 91 | 1003.2 |
| 20260901031041 | 81 | 14 | 3.0 | 4.0 | 0.00 | 0.10 | 0.10 | 91 | 1003.3 |
| 20260901030041 | 81 | 36 | 3.0 | 5.0 | 0.00 | 0.10 | 0.10 | 90 | 1003.4 |
| 20260901024521 | 81 | 35 | 2.0 | 4.0 | 0.00 | 0.10 | 0.10 | 90 | 1003.0 |
| 20260901023036 | 81 | 44 | 1.0 | 2.0 | 0.00 | 0.10 | 0.10 | 90 | 1002.7 |
| 20260901022033 | 81 | 44 | 1.0 | 3.0 | 0.00 | 0.10 | 0.10 | 90 | 1002.7 |
| 20260901021508 | 81 | 0 | 2.0 | 3.0 | 0.00 | 0.10 | 0.10 | 90 | 1002.7 |
| 20260901020033 | 81 | 77 | 2.0 | 4.0 | 0.00 | 0.10 | 0.10 | 90 | 1002.7 |
| 20260901015033 | 81 | 21 | 2.0 | 4.0 | 0.00 | 0.10 | 0.10 | 89 | 1002.6 |
| 20260901014033 | 81 | 74 | 2.0 | 4.0 | 0.00 | 0.10 | 0.10 | 89 | 1002.3 |
| 20260901013514 | 81 | 77 | 2.0 | 5.0 | 0.00 | 0.10 | 0.10 | 89 | 1002.2 |
| 20260901012028 | 81 | 74 | 3.0 | 5.0 | 0.00 | 0.10 | 0.10 | 89 | 1002.1 |
| 20260901011027 | 81 | 95 | 2.0 | 5.0 | 0.00 | 0.10 | 0.10 | 89 | 1001.9 |
| 20260901010029 | 81 | 59 | 3.0 | 7.0 | 0.00 | 0.10 | 0.10 | 89 | 1001.9 |
| 20260901005028 | 81 | 39 | 4.0 | 8.0 | 0.00 | 0.10 | 0.10 | 88 | 1002.2 |
| 20260901004028 | 81 | 46 | 4.0 | 7.0 | 0.00 | 0.10 | 0.10 | 89 | 1002.3 |
| 20260901003508 | 81 | 26 | 4.0 | 7.0 | 0.00 | 0.10 | 0.10 | 88 | 1002.1 |
| 20260901002514 | 82 | 33 | 4.0 | 8.0 | 0.00 | 0.10 | 0.10 | 88 | 1002.3 |
| 20260901001029 | 82 | 19 | 4.0 | 9.0 | 0.00 | 0.10 | 0.10 | 88 | 1002.3 |
| 20260901000027 | 82 | 40 | 4.0 | 9.0 | 0.00 | 0.10 | 0.10 | 87 | 1002.6 |
| 20260831235027 | 82 | 31 | 4.0 | 7.0 | 0.00 | 0.10 | 0.10 | 87 | 1002.7 |
| 20260831234027 | 82 | 36 | 4.0 | 8.0 | 0.00 | 0.10 | 0.10 | 86 | 1002.8 |
| 20260831233027 | 82 | 44 | 5.0 | 9.0 | 0.00 | 0.10 | 0.10 | 85 | 1002.8 |
| 20260831232028 | 83 | 62 | 5.0 | 8.0 | 0.00 | 0.10 | 0.10 | 84 | 1002.9 |
| 20260831231511 | 83 | 11 | 4.0 | 8.0 | 0.00 | 0.10 | 0.10 | 83 | 1003.1 |
| 20260831230027 | 83 | 25 | 5.0 | 8.0 | 0.00 | 0.10 | 0.10 | 82 | 1002.9 |
| 20260831225024 | 83 | 46 | 4.0 | 8.0 | 0.00 | 0.10 | 0.10 | 82 | 1002.9 |
| 20260831224033 | 84 | 35 | 4.0 | 8.0 | 0.00 | 0.10 | 0.10 | 81 | 1003.2 |
| 20260831223021 | 84 | 56 | 5.0 | 9.0 | 0.00 | 0.10 | 0.10 | 79 | 1004.6 |
| 20260831222021 | 84 | 49 | 5.0 | 8.0 | 0.00 | 0.10 | 0.10 | 77 | 1004.7 |
| 20260831221021 | 85 | 45 | 5.0 | 9.0 | 0.00 | 0.10 | 0.10 | 76 | 1004.8 |
| 20260831220021 | 85 | 24 | 4.0 | 9.0 | 0.00 | 0.10 | 0.10 | 74 | 1005.3 |
| 20260831215456 | 85 | 38 | 5.0 | 8.0 | 0.00 | 0.10 | 0.10 | 75 | 1005.7 |
| 20260831214019 | 85 | 49 | 5.0 | 8.0 | 0.00 | 0.10 | 0.10 | 74 | 1006.3 |
| 20260831213019 | 85 | 82 | 5.0 | 9.0 | 0.00 | 0.10 | 0.10 | 75 | 1006.0 |
| 20260831212019 | 85 | 97 | 6.0 | 9.0 | 0.00 | 0.10 | 0.10 | 76 | 1005.9 |
| 20260831211019 | 85 | 128 | 5.0 | 10.0 | 0.00 | 0.10 | 0.10 | 78 | 1006.6 |
| 20260831210500 | 86 | 57 | 5.0 | 10.0 | 0.00 | 0.10 | 0.10 | 76 | 1007.0 |
| 20260831205020 | 86 | 58 | 5.0 | 8.0 | 0.00 | 0.10 | 0.10 | 74 | 1007.9 |
| 20260831204017 | 86 | 33 | 6.0 | 10.0 | 0.00 | 0.10 | 0.10 | 75 | 1007.9 |
| 20260831203017 | 86 | 70 | 5.0 | 10.0 | 0.00 | 0.10 | 0.10 | 74 | 1008.2 |
| 20260831202017 | 85 | 36 | 5.0 | 9.0 | 0.00 | 0.10 | 0.10 | 75 | 1008.3 |
| 20260831201014 | 85 | 17 | 5.0 | 10.0 | 0.00 | 0.10 | 0.10 | 77 | 1008.0 |
| 20260831200014 | 85 | 39 | 5.0 | 9.0 | 0.00 | 0.10 | 0.10 | 77 | 1008.4 |
| 20260831195014 | 85 | 41 | 6.0 | 9.0 | 0.00 | 0.10 | 0.10 | 75 | 1008.9 |
| 20260831194454 | 85 | 42 | 6.0 | 11.0 | 0.00 | 0.10 | 0.10 | 74 | 1008.8 |
| 20260831193014 | 85 | 37 | 6.0 | 9.0 | 0.00 | 0.10 | 0.10 | 75 | 1009.0 |
| 20260831192014 | 85 | 14 | 6.0 | 10.0 | 0.00 | 0.10 | 0.10 | 74 | 1009.7 |
| 20260831191015 | 85 | 21 | 6.0 | 12.0 | 0.00 | 0.10 | 0.10 | 74 | 1009.8 |